This is the latest recevied weather packets stored in our database for station/object AF5AA. If no packets are shown the sender has not sent any weather packets the latest 1 day(s).
| Time | Temp. | Humidity | Pressure | Rain* | Wind** | Luminosity | Snow |
|---|---|---|---|---|---|---|---|
| 1777999494 | 25° C | 83% | 1007.3 hPa | 0 mm | 0 m/s | 70 W/m² | - |
| 1777999192 | 24.44° C | 83% | 1007.1 hPa | 0 mm | 0 m/s | 70 W/m² | - |
| 1777998891 | 24.44° C | 83% | 1007.3 hPa | 0 mm | 0.45 m/s, 143° | 93 W/m² | - |
| 1777998590 | 24.44° C | 83% | 1007.1 hPa | 0 mm | 0 m/s | 80 W/m² | - |
| 1777998285 | 24.44° C | 84% | 1007.3 hPa | 0 mm | 0 m/s | 68 W/m² | - |
| 1777997982 | 24.44° C | 84% | 1007.1 hPa | 0 mm | 0 m/s | 108 W/m² | - |
| 1777997679 | 24.44° C | 84% | 1007.2 hPa | 0 mm | 0 m/s | 59 W/m² | - |
| 1777997376 | 23.89° C | 83% | 1007.2 hPa | 0 mm | 0.45 m/s, 114° | 75 W/m² | - |
| 1777997075 | 23.89° C | 84% | 1006.9 hPa | 0 mm | 0 m/s | 76 W/m² | - |
| 1777996770 | 23.89° C | 85% | 1006.9 hPa | 0 mm | 0 m/s | 91 W/m² | - |
| 1777996467 | 23.89° C | 85% | 1007 hPa | 0 mm | 0.45 m/s, 115° | 55 W/m² | - |
| 1777996164 | 23.89° C | 85% | 1006.8 hPa | 0 mm | 0.45 m/s, 321° | 85 W/m² | - |
| 1777995860 | 23.33° C | 86% | 1007.1 hPa | 0 mm | 0 m/s | 107 W/m² | - |
| 1777995556 | 23.33° C | 86% | 1007 hPa | 0 mm | 0 m/s | 56 W/m² | - |
| 1777995254 | 23.33° C | 86% | 1007.2 hPa | 0 mm | 0.45 m/s, 166° | 44 W/m² | - |
| 1777994951 | 22.78° C | 86% | 1007.2 hPa | 0 mm | 0 m/s | 59 W/m² | - |
| 1777994648 | 22.78° C | 87% | 1007.2 hPa | 0 mm | 0 m/s | 46 W/m² | - |
| 1777994348 | 22.78° C | 86% | 1006.9 hPa | 0 mm | 0 m/s | 43 W/m² | - |
| 1777994044 | 22.78° C | 86% | 1007 hPa | 0 mm | 0 m/s | 54 W/m² | - |
| 1777993741 | 22.78° C | 86% | 1006.8 hPa | 0 mm | 0.45 m/s, 142° | 34 W/m² | - |
| 1777993438 | 22.78° C | 86% | 1006.9 hPa | 0 mm | 0 m/s | 32 W/m² | - |
| 1777993133 | 22.78° C | 86% | 1007.2 hPa | 0 mm | 0.45 m/s, 114° | 49 W/m² | - |
| 1777992831 | 22.78° C | 87% | 1007.2 hPa | 0 mm | 0 m/s | 54 W/m² | - |
| 1777992528 | 22.78° C | 86% | 1007.2 hPa | 0 mm | 0 m/s | 26 W/m² | - |
| 1777992227 | 22.78° C | 86% | 1007.2 hPa | 0 mm | 0 m/s | 25 W/m² | - |
* Rain latest hour (hover to see other rain measurements)
** Current wind speed in m/s (hover to see current wind gust speed)